Weather History for Bedford, MA

Change the Weather History Date:

Wednesday, March 20, 2013

  Actual Average Record
Temperature  
Mean Temperature 30 °F -  
Max Temperature 37 °F 48 °F 80 °F (2012)
Min Temperature 21 °F 26 °F 6 °F (1993)
Degree Days  
Heating Degree Days 35    
Moisture  
Dew Point 18 °F    
Average Humidity 67    
Maximum Humidity 88    
Minimum Humidity 44    
Precipitation  
Precipitation 0.00 in - - ()
Sea Level Pressure  
Sea Level Pressure 29.78 in    
Wind  
Wind Speed 10 mph (WSW)    
Max Wind Speed 20 mph    
Max Gust Speed 29 mph    
Visibility 10 miles    
Events      
Averages and records for this station are not official NWS values.
T = Trace of Precipitation, MM = Missing Value Source: NWS Daily Summary

Daily Weather History Graph

Daily Weather History Graph

Search for Another Location

Airport:

Trip Planner

Search our weather history database for the weather conditions in past years. The results will help you decide how hot, cold, wet, or windy it might be!

Date:

Astronomy

Mar. 20, 2013 Rise Set
Actual Time 6:48 AM EDT 6:57 PM EDT
Civil Twilight 6:20 AM EDT 7:25 PM EDT
Nautical Twilight 5:47 AM EDT 7:58 PM EDT
Astronomical Twilight 5:13 AM EDT 8:32 PM EDT
Moon 12:23 PM EDT (3/20) 2:32 AM EDT (3/20)
Length of Visible Light 13h 05m
Length of Day
12h 09m
First Quarter, 59% of the Moon is Illuminated
Mar 20
First Quarter
Mar 27
Full
Apr 3
Last Quarter
Apr 10
New
Apr 18
First Quarter

Hourly Weather History & Observations

Time (EDT) Temp. Windchill Dew Point Humidity Pressure Visibility Wind Dir Wind Speed Gust Speed Precip Events Conditions
12:31 AM 26.6 °F 17.5 °F 21.2 °F 80% 29.70 in 10.0 mi NW 9.2 mph - N/A   Overcast
12:56 AM 26.1 °F 17.6 °F 21.9 °F 84% 29.75 in 10.0 mi NW 8.1 mph - N/A   Overcast
1:56 AM 26.1 °F 17.6 °F 21.9 °F 84% 29.75 in 10.0 mi NW 8.1 mph - N/A   Overcast
2:56 AM 24.1 °F 17.0 °F 19.9 °F 84% 29.75 in 10.0 mi WSW 5.8 mph - N/A   Scattered Clouds
3:56 AM 25.0 °F 19.3 °F 21.0 °F 85% 29.75 in 10.0 mi WSW 4.6 mph - N/A   Overcast
4:56 AM 25.0 °F 18.1 °F 21.9 °F 88% 29.76 in 10.0 mi WSW 5.8 mph - N/A   Overcast
5:56 AM 26.1 °F 17.6 °F 19.9 °F 78% 29.77 in 10.0 mi West 8.1 mph - N/A   Overcast
6:56 AM 25.0 °F 14.8 °F 19.0 °F 78% 29.78 in 10.0 mi WSW 10.4 mph - N/A   Clear
7:56 AM 25.0 °F 14.8 °F 18.0 °F 75% 29.78 in 10.0 mi WSW 10.4 mph - N/A   Scattered Clouds
8:56 AM 27.0 °F 15.6 °F 18.0 °F 69% 29.78 in 10.0 mi West 13.8 mph - N/A   Partly Cloudy
9:56 AM 28.9 °F 19.2 °F 19.0 °F 67% 29.78 in 10.0 mi West 11.5 mph 23.0 mph N/A   Partly Cloudy
10:56 AM 30.9 °F 19.1 °F 18.0 °F 59% 29.78 in 10.0 mi West 18.4 mph 26.5 mph N/A   Scattered Clouds
11:56 AM 32.0 °F 20.8 °F 18.0 °F 56% 29.78 in 10.0 mi West 17.3 mph 28.8 mph N/A   Mostly Cloudy
12:56 PM 34.0 °F 22.7 °F 18.0 °F 52% 29.79 in 10.0 mi WSW 19.6 mph 25.3 mph N/A   Mostly Cloudy
1:56 PM 33.1 °F 24.4 °F 18.0 °F 54% 29.79 in 10.0 mi West 11.5 mph 21.9 mph N/A   Overcast
2:56 PM 35.1 °F 25.2 °F 16.0 °F 46% 29.77 in 10.0 mi WSW 16.1 mph 27.6 mph N/A   Mostly Cloudy
3:56 PM 35.1 °F 26.4 °F 15.1 °F 44% 29.77 in 10.0 mi West 12.7 mph 28.8 mph N/A   Mostly Cloudy
4:56 PM 36.0 °F 26.7 °F 16.0 °F 44% 29.77 in 10.0 mi West 15.0 mph 25.3 mph N/A   Scattered Clouds
5:56 PM 35.1 °F 25.2 °F 16.0 °F 46% 29.79 in 10.0 mi West 16.1 mph 25.3 mph N/A   Mostly Cloudy
6:56 PM 35.1 °F 27.4 °F 16.0 °F 46% 29.81 in 10.0 mi WSW 10.4 mph 18.4 mph N/A   Partly Cloudy
7:56 PM 32.0 °F 27.5 °F 16.0 °F 52% 29.83 in 10.0 mi SW 4.6 mph - N/A   Clear
8:56 PM 27.0 °F 23.0 °F 17.1 °F 66% 29.83 in 10.0 mi South 3.5 mph - N/A   Clear
9:56 PM 28.0 °F 24.2 °F 18.0 °F 66% 29.84 in 10.0 mi SW 3.5 mph - N/A   Clear
10:56 PM 24.1 °F - 18.0 °F 77% 29.85 in 10.0 mi Calm Calm - N/A   Mostly Cloudy
11:56 PM 21.9 °F 15.7 °F 18.0 °F 85% 29.85 in 10.0 mi SW 4.6 mph - N/A   Mostly Cloudy